Погода в Пфаффенхофене-ан-дер-Ильм

Германия     48°31′47″N   11°30′22″E
темп.,
°C
ветер,
м/с
пор.,
м/с
влажн.,
%
обл.,
%
осадки,
мм/ч
давл.,
гПа
погр.,
м
18 апреля, вс
вс1823:00+2с2287100 0.0 102148
02:00+1ссз2293100 0.0 102120
05:00+1с1298100 0.0 102175
08:00+2ссз1294100 0.0 1021354
11:00+3сз1188100 0.1 1021585
14:00+5сз227997 0.1 1020628
17:00+6сз1169100 0.0 1020943
20:00+3зюз228259 0.0 102011
19 апреля, пн
пн1923:00+2зюз2288100 0.0 102121
02:00+1з2289100 0.0 102129
05:00+2зюз2290100 0.0 102049
08:00+4з2385100 0.0 1020181
11:00+4зсз2394100 0.1 1020532
14:00+5зсз3392100 0.2 1020494
17:00+6зсз2283100 0.1 1019518
20:00+5з118769 0.1 101913
20 апреля, вт
вт2023:00+3зюз2292100 0.0 101928
02:00+2з229469 0.0 101836
05:00+3зюз2392100 0.0 1018112
08:00+4з3490100 0.0 1018168
11:00+7зсз2381100 0.0 1018533
14:00+8с337996 0.1 1017750
17:00+10ссз237376 0.1 1015834
20:00+7вюв118384 0.1 101610
21 апреля, ср
ср2123:00+5ю118624 0.0 101710
02:00+5юз228875 0.0 101732
05:00+3зюз229217 0.0 101727
08:00+5зюз228665 0.0 1018120
11:00+11з237063 0.1 1017824
14:00+13сз446221 2.8 10151312
17:00+13с456417 2.4 10151277
20:00+9зсз11795 2.8 101610
22 апреля, чт
чт2223:00+6зсз22865 0.0 101812
02:00+5з22895 0.0 101815
05:00+4з339288 0.0 101944
08:00+6зсз3689100 0.0 1020238
11:00+5ссз5693100 0.2 1022615
14:00+9зсз57646 0.4 10211070
17:00+10сз66465 0.0 10211567
20:00+5сз36705 0.0 1024102